Tracking 30918 objects as of 2-Jul-2025
HD Live streaming from Space Station
objects crossing your sky now

SL-16 DEB

Track SL-16 DEB now!
10-day predictions


NORAD ID: 22602
Int'l Code: 1993-016L
Perigee: 844.3 km
Apogee: 1,140.1 km
Inclination: 71.0 °
Period: 104.8 minutes
Semi major axis: 7363 km
RCS: 0.0922 m2 (small)
Launch date: March 26, 1993
Source: Commonwealth of Independent States (former USSR) (CIS)
Launch site: TYURATAM MISSILE AND SPACE COMPLEX (TTMTR)

Note: This is SATELLITE DEBRIS
Your satellite tracking list
Your tracking list is empty




NASA's NSSDC Master Catalog

Two Line Element Set (TLE):
1 22602U 93016L   25182.62198579  .00000047  00000-0  82976-4 0  9993
2 22602  71.0457 279.1973 0200863 234.1170 234.4702 13.74060841616989
Source of the keplerian elements: AFSPC